Tracking 18980 objects as of 22-Feb-2018
HD Live streaming from Space Station
objects crossing your sky now

TELE-X

Track TELE-X now!
TELE-X is classified as:


NORAD ID: 19919
Int'l Code: 1989-027A
Perigee: 36,086.0 km
Apogee: 36,117.8 km
Inclination: 15.0 °
Period: 1,451.9 minutes
Semi major axis: 42472 km
RCS: 3.8854 m2 (large)
Launch date: April 2, 1989
Source: Sweden (SWED)
Launch site: FRENCH GUIANA (FRGUI)
aabbcc
Your satellite tracking list
Your tracking list is empty




NASA's NSSDC Master Catalog

Two Line Element Set (TLE):
1 19919U 89027A   18052.11934241 -.00000161  00000-0  00000+0 0  9994
2 19919  15.0140  17.8074 0003747 282.9308 257.4078  0.99182554 87137
Source of the keplerian elements: AFSPC